Broomfield, CO

1:58 PM MST on January 21, 2018 (GMT -0700)
Jeffco

Weather History for KBJC - July, 2014

Change the Weather History Date:

Monday, July 21, 2014

  Actual Average Record
Temperature  
Mean Temperature 82 °F -  
Max Temperature 95 °F 86 °F 100 °F (2005)
Min Temperature 68 °F 62 °F 46 °F (1988)
Cooling Degree Days 16    
Growing Degree Days 32 (Base 50)    
Moisture  
Dew Point 42 °F    
Average Humidity 31    
Maximum Humidity 43    
Minimum Humidity 14    
Precipitation  
Precipitation 0.00 in - - ()
Sea Level Pressure  
Sea Level Pressure 30.15 in    
Wind  
Wind Speed 4 mph (WSW)    
Max Wind Speed 12 mph    
Max Gust Speed 20 mph    
Visibility 10 miles    
Events      
Averages and records for this station are not official NWS values.
T = Trace of Precipitation, MM = Missing Value Source: NWS Daily Summary

Daily Weather History Graph

Daily Weather History Graph

Search for Another Location

Airport or City:

Trip Planner

Search our weather history database for the weather conditions in past years. The results will help you decide how hot, cold, wet, or windy it might be!

Date:

Astronomy

Jul. 21, 2014 Rise Set
Actual Time 5:49 AM MDT 8:23 PM MDT
Civil Twilight 5:18 AM MDT 8:55 PM MDT
Nautical Twilight 4:39 AM MDT 9:33 PM MDT
Astronomical Twilight 3:55 AM MDT 10:17 PM MDT
Moon 1:41 AM MDT 4:08 PM MDT
Length of Visible Light 15h 37m
Length of Day
14h 34m
Waning Crescent, 24% of the Moon is Illuminated
Jul 21
Waning Crescent
Jul 26
New
Aug 3
First Quarter
Aug 10
Full
Aug 17
Last Quarter

Hourly Weather History & Observations

Time (MDT) Temp. Dew Point Humidity Pressure Visibility Wind Dir Wind Speed Gust Speed Precip Events Conditions
12:15 AM 68.0 °F 44.6 °F 43% 30.12 in 10.0 mi WSW 6.9 mph - N/A   Clear
12:34 AM 69.8 °F 42.8 °F 38% 30.12 in 10.0 mi WSW 4.6 mph - N/A   Clear
12:55 AM 69.8 °F 42.8 °F 38% 30.12 in 10.0 mi Calm Calm - N/A   Clear
1:15 AM 71.6 °F 41.0 °F 33% 30.12 in 10.0 mi West 3.5 mph - N/A   Clear
1:34 AM 68.0 °F 44.6 °F 43% 30.12 in 10.0 mi Calm Calm - N/A   Clear
1:55 AM 69.8 °F 42.8 °F 38% 30.11 in 10.0 mi Calm Calm - N/A   Clear
2:14 AM 68.0 °F 44.6 °F 43% 30.11 in 10.0 mi West 3.5 mph - N/A   Clear
2:35 AM 69.8 °F 41.0 °F 35% 30.11 in 10.0 mi Calm Calm - N/A   Clear
2:55 AM 68.0 °F 44.6 °F 43% 30.11 in 10.0 mi Calm Calm - N/A   Clear
3:15 AM 71.6 °F 41.0 °F 33% 30.11 in 10.0 mi Calm Calm - N/A   Clear
3:35 AM 68.0 °F 41.0 °F 37% 30.11 in 10.0 mi Calm Calm - N/A   Clear
3:55 AM 68.0 °F 42.8 °F 40% 30.12 in 10.0 mi West 3.5 mph - N/A   Clear
4:14 AM 71.6 °F 37.4 °F 29% 30.12 in 10.0 mi West 4.6 mph - N/A   Clear
4:35 AM 68.0 °F 41.0 °F 37% 30.12 in 10.0 mi West 4.6 mph - N/A   Clear
4:54 AM 68.0 °F 39.2 °F 35% 30.12 in 10.0 mi West 5.8 mph - N/A   Clear
5:15 AM 69.8 °F 41.0 °F 35% 30.12 in 10.0 mi West 3.5 mph - N/A   Clear
5:35 AM 68.0 °F 41.0 °F 37% 30.13 in 10.0 mi Calm Calm - N/A   Clear
5:55 AM 68.0 °F 42.8 °F 40% 30.13 in 10.0 mi Calm Calm - N/A   Clear
6:45 AM 71.6 °F 42.8 °F 35% 30.15 in 30.0 mi SW 4.6 mph - N/A   Mostly Cloudy
7:47 AM 77.0 °F 48.2 °F 36% 30.17 in 30.0 mi SE 3.5 mph - N/A   Mostly Cloudy
8:49 AM 80.6 °F 48.2 °F 32% 30.18 in 50.0 mi SSW 4.6 mph - N/A   Mostly Cloudy
9:47 AM 87.8 °F 44.6 °F 22% 30.19 in 50.0 mi SSW 9.2 mph - N/A   Mostly Cloudy
10:47 AM 91.4 °F 39.2 °F 16% 30.19 in 50.0 mi SSW 6.9 mph - N/A   Mostly Cloudy
11:54 AM 91.4 °F 37.4 °F 15% 30.19 in 50.0 mi SE 8.1 mph - N/A   Mostly Cloudy
12:48 PM 93.2 °F 41.0 °F 16% 30.18 in 50.0 mi SSE 9.2 mph - N/A   Mostly Cloudy
1:46 PM 95.0 °F 39.2 °F 14% 30.17 in 50.0 mi South 10.4 mph - N/A   Mostly Cloudy
3:49 PM 93.2 °F 37.4 °F 14% 30.15 in 40.0 mi ESE 3.5 mph - N/A   Mostly Cloudy
5:46 PM 93.2 °F 37.4 °F 14% 30.14 in 50.0 mi SSE 8.1 mph - N/A   Mostly Cloudy
7:46 PM 87.8 °F 44.6 °F 22% 30.16 in 50.0 mi NW 11.5 mph 19.6 mph N/A   Mostly Cloudy
8:46 PM 82.4 °F 44.6 °F 26% 30.16 in 40.0 mi NNW 9.2 mph - N/A   Mostly Cloudy
11:15 PM 78.8 °F 37.4 °F 23% 30.21 in 10.0 mi NW 9.2 mph - N/A   Clear
11:35 PM 77.0 °F 37.4 °F 24% 30.21 in 10.0 mi NW 8.1 mph - N/A   Clear
11:54 PM 77.0 °F 37.4 °F 24% 30.22 in 10.0 mi WNW 8.1 mph - N/A   Clear